SCP
0 0 0 0 0 0 0 0 0 0 0 0 0 0 0 0 0 0 0 0 0 0 0 0 0 0 0 0 0 0 0 0 0 0 0 0 0 0
0 0 0 0 0 0 0 0 0 0 0 0 0 0 0 0 0 0 0 0 0 0 0 0 0 0 0 0 0 0 0 0 0 0 0 0 0 0
0 0 0 0 0 0 0 0 0 0 0 0 0 0 0 0 0 0 0 0 0 0 0 0 0 0 0 0 0 0 0 0 0 0 0 0 0 0
0 0 0 0 0 0 0 0 0 0 0 0 0 0 0 0 0 0 0 0 0 0 0 0 0 0 0 0 0 0 0 0 0 0 0 0 0 0
0 0 0 0 0 0 0 0 0 0 0 0 0 0 0 0 0 0 0 0 0 0 0 0 0 0 0 0 0 0 0 0 0 0 0 0 0 0
0 0 0 0 0 0 0 0 0 0 0 0 0 0 0 0 0 0 0 0 0 0 0 0 0 0 0 0 0 0 0 0 0 0 0 0 0 0
0 0 0 0 0 0 0 0 0 0 0 0 0 0 0 0 0 0 0 0 0 0 0 0 0 0 0 0 0 0 0 0 0 0 0 0 0 0
0 0 0 0 0 0 0 0 0 0 0 0 0 0 0 0 0 0 0 0 0 0 0 0 0 0 0 0 0 0 0 0 0 0 0 0 0 0
0 0 0 0 0 0 0 0 0 0 0 0 0 0 0 0 0 0 0 0 0 0 0 0 0 0 0 0 0 0 0 0 0 0 0 0 0 0
0 0 0 0 0 0 0 0 0 0 0 0 0 0 0 0 0 0 0 0 0 0 0 0 0 0 0 0 0 0 0 0 0 0 0 0 0 0
0 0 0 0 0 0 0 0 0 0 0 0 0 0 0 0 0 0 0 0 0 0 0 0 0 0 0 0 0 0 0 0 0 0 0 0 0 0
0 0 0 0 0 0 0 0 0 0 0 0 0 0 0 0 0 0 0 0 0 0 0 0 0 0 0 0 0 0 0 0 0 0 0 0 0 0
0 0 0 0 0 0 0 0 0 0 0 0 0 0 0 0 0 0 0 0 0 0 0 0 0 0 0 0 0 0 0 0 0 0 0 0 0 0
0 0 0 0 0 0 0 0 0 0 0 0 0 0 0 0 0 0 0 0 0 0 0 0 0 0 0 0 0 0 0 0 0 0 0 0 -0 0
0 0 0 0 0 0 0 0 0 0 0 0 0 0 0 0 0 0 0 0 0 0 0 0 0 0 0 0 0 0 0 0 0 0 0 0 0 0
0 0 0 0 0 0 0 0 0 0 0 0 0 0 0 0 0 0 0 0 0 0 0 0 0 0 0 0 0 -0 0 0 0 0 0 0 0 0
0 0 0 0 0 0 0 0 0 0 0 0 0 0 0 0 0 0 0 0 0 0 0 0 0 0 0 -0 0 -0 0 0 0 0 0 0 0 0
0 0 0 0 0 0 0 0 0 0 0 0 0 0 0 0 0 0 0 0 0 0 0 0 0 0 0 0 0 0 0 0 0 0 0 0 0 0
0 0 0 0 0 0 0 0 0 0 0 0 0 0 0 0 0 0 0 0 0 0 0 0 0 0 0 0 0 0 0 0 0 0 0 0 0 0
0 0 0 0 0 0 0 0 0 0 0 0 0 0 0 0 0 0 0 0 0 0 0 0 0 0 0 0 0 0 0 0 0 0 0 0 0 0
0 0 0 0 0 0 0 0 0 0 0 0 0 0 0 0 0 0 0 0 0 0 0 0 0 0 0 0 0 0 0 0 0 0 0 0 0 0
0 0 0 0 0 0 0 0 0 0 0 0 0 0 0 0 0 0 0 0 0 0 0 0 0 0 0 0 0 0 0 0 0 0 0 0 0 0
0 0 0 0 0 0 0 0 0 0 0 0 0 0 0 0 0 0 0 0 0 0 0 0 0 0 0 0 0 0 0 0 0 0 0 0 0 0
Wind_Speed_500mb
35 40 41 40 41 41 42 41 45 59 66 57 55 59 68 67 65 68 69 68 65 67 67 62 65 73 75 79 82 84 85 86 87 88 90 92 93 96
31 32 34 35 37 39 41 44 45 49 64 66 71 70 69 70 70 69 72 76 76 71 72 71 75 77 81 81 83 83 86 90 90 90 91 92 98 96
26 28 30 34 36 40 42 44 49 52 67 84 78 79 76 77 74 73 75 76 77 77 78 77 75 75 77 80 84 87 90 92 90 88 90 92 92 98
26 30 34 37 40 44 47 50 54 56 65 84 85 86 84 80 82 82 81 76 77 77 78 77 78 80 73 73 78 84 90 94 95 92 92 97 97 96
31 35 39 43 45 49 52 55 57 61 64 75 90 87 88 85 88 87 87 88 80 82 83 82 85 79 74 72 66 71 76 82 85 86 89 93 96 96
35 39 42 46 50 53 57 59 62 66 70 76 84 89 86 83 79 88 98 89 92 86 87 73 67 61 72 77 79 73 72 78 81 85 89 93 93 95
39 44 48 52 55 57 61 61 61 64 67 71 77 82 84 85 77 80 83 91 94 78 71 72 78 91 85 84 78 76 73 73 75 80 84 86 91 92
46 48 51 54 55 56 56 56 57 58 61 63 70 74 79 73 73 72 75 84 89 82 78 108 83 87 84 76 73 65 64 71 75 79 81 87 92 90
50 52 51 50 51 53 54 53 53 53 54 55 65 63 69 64 66 76 78 72 87 96 78 94 81 89 78 68 66 63 66 69 74 76 79 86 89 81
49 50 50 50 50 53 56 57 56 56 54 54 57 63 60 63 65 71 80 78 78 79 66 84 87 84 83 71 60 55 58 60 71 69 65 73 59 56
48 48 51 52 54 56 55 61 64 64 59 55 53 53 59 59 48 50 58 63 82 84 71 62 76 87 79 65 48 61 69 62 66 55 39 41 29 36
47 51 53 56 57 56 55 58 65 65 60 61 60 58 52 48 39 37 50 64 70 77 51 71 73 68 66 45 68 67 62 52 48 30 23 28 40 78
50 52 53 54 55 55 48 48 55 54 58 60 58 54 50 46 45 52 46 49 57 59 57 51 64 59 58 73 72 60 63 51 33 9 37 37 53 68
49 50 53 51 53 50 46 44 50 50 55 56 56 55 54 53 54 49 47 47 49 51 45 39 52 49 52 59 60 52 40 12 27 45 52 55 63 61
48 53 55 56 54 53 43 41 50 51 49 52 54 55 55 55 52 51 46 45 43 37 33 35 38 38 35 36 40 43 28 30 43 44 47 46 41 33
52 56 58 55 51 47 45 43 47 49 50 49 52 53 52 52 50 47 43 42 36 23 25 29 30 28 26 25 28 29 5 3 37 36 36 31 28 23
55 57 59 58 58 54 49 45 49 55 59 57 54 52 49 47 46 39 39 33 28 27 23 22 22 19 24 24 21 21 17 19 31 28 23 22 21 16
54 57 57 57 56 56 55 55 56 58 56 53 53 48 46 45 43 39 34 28 23 22 22 21 19 17 19 19 15 14 12 6 14 13 9 6 8 5
55 55 56 56 56 55 54 54 55 51 49 46 49 48 46 44 42 39 34 29 22 21 21 20 18 19 18 19 18 12 8 2 10 19 17 13 10 11
52 53 53 53 53 53 52 51 50 47 45 45 45 43 41 42 41 37 33 32 28 24 22 21 19 17 15 16 16 15 9 4 3 8 14 16 18 17
50 47 49 51 51 50 49 47 45 44 43 42 41 41 39 38 36 34 32 29 29 27 26 23 20 18 17 15 13 12 10 7 5 5 6 8 9 9
49 48 47 47 47 47 45 45 43 42 40 38 37 37 35 34 32 31 30 29 26 25 25 23 21 19 18 17 17 16 14 9 8 9 10 10 7 4
44 44 44 43 43 42 43 42 41 40 40 39 37 36 35 34 31 28 28 27 27 26 24 23 21 20 19 18 18 16 15 14 13 12 13 14 17 19
Wind_Direction_500mb
272 273 279 285 285 286 286 286 290 298 302 300 305 305 305 308 306 306 304 303 296 293 293 291 287 286 287 284 282 281 279 278 278 276 273 270 267 263
282 288 292 296 300 301 300 298 294 287 289 294 300 304 305 308 309 308 306 307 305 297 296 289 284 283 282 283 284 283 281 278 276 274 272 272 268 268
288 293 297 300 303 303 303 302 303 302 296 302 306 310 309 309 309 307 306 305 302 300 300 296 295 290 283 280 281 282 283 283 280 275 272 271 269 265
299 300 302 304 306 306 307 306 305 304 301 303 307 310 311 312 312 310 310 307 304 304 303 302 300 298 291 282 280 279 279 280 281 280 278 272 270 268
306 308 309 310 310 307 307 307 306 305 304 304 307 310 312 313 312 310 310 308 309 308 306 305 309 306 302 301 293 289 285 280 277 278 277 276 273 267
309 309 309 309 310 309 308 309 310 310 310 309 308 309 311 315 314 314 313 312 313 315 314 315 313 306 302 303 304 304 294 286 284 281 278 274 273 273
311 312 311 311 311 312 312 312 311 310 309 309 308 310 313 317 319 317 315 318 318 323 318 316 309 308 309 309 310 305 300 295 289 285 281 277 274 271
313 313 315 316 315 312 309 309 311 312 311 309 309 309 310 312 317 318 318 319 313 310 310 306 316 316 316 312 312 310 302 298 295 290 284 280 276 270
317 316 316 316 315 314 312 311 311 311 310 311 309 310 310 318 319 317 315 305 302 303 314 312 316 314 321 320 318 314 308 301 295 291 286 283 281 272
318 318 319 321 321 319 318 318 319 319 320 316 310 308 311 311 303 298 298 303 304 311 317 308 318 317 322 320 322 317 312 305 304 297 292 293 292 265
320 319 321 323 324 325 321 321 319 320 320 314 311 307 302 304 308 307 308 309 305 309 315 310 312 317 321 326 332 324 315 311 302 300 293 301 234 220
327 327 327 324 321 320 320 319 316 317 317 317 312 312 314 317 317 305 298 297 302 311 316 312 317 326 324 327 330 333 326 327 312 292 252 268 185 147
327 324 323 319 318 321 319 310 308 311 308 311 315 319 322 322 318 312 312 306 305 302 315 318 320 325 318 312 322 332 340 350 347 277 187 190 168 158
320 319 321 324 321 320 316 307 311 308 311 315 318 322 322 319 317 315 317 309 302 302 312 321 318 322 322 322 328 338 354 32 132 151 153 154 154 145
319 320 321 323 324 322 317 310 313 312 316 316 316 316 316 318 317 316 318 313 308 302 310 322 323 323 326 330 335 345 354 114 139 155 149 135 128 123
320 321 321 321 318 315 315 313 310 308 314 311 310 312 317 321 323 323 322 322 317 307 322 325 329 332 341 347 357 2 38 14 140 140 139 130 128 122
317 320 320 320 317 316 314 305 303 303 309 312 311 314 317 324 332 330 326 326 324 332 340 338 340 351 360 360 8 19 24 156 153 154 157 140 127 117
319 317 316 314 313 312 309 304 299 299 300 302 306 310 312 317 322 330 323 324 331 346 351 349 359 9 13 11 12 23 41 132 172 161 164 167 153 156
315 315 312 310 309 308 308 308 307 306 302 298 299 304 305 308 312 314 318 315 322 333 342 341 348 357 3 15 19 9 5 342 225 236 239 246 253 266
311 311 310 309 308 308 309 309 309 308 305 303 301 302 303 305 308 312 312 312 312 314 320 326 328 328 331 342 347 352 347 327 270 241 251 259 265 269
312 310 307 306 307 307 308 308 308 309 308 306 305 304 303 303 303 307 310 311 310 310 310 311 308 306 304 306 312 324 324 302 280 247 231 241 246 249
312 310 308 306 305 306 306 306 307 306 305 305 304 304 303 304 305 306 308 309 309 307 306 306 303 300 296 291 289 291 295 292 279 265 252 249 248 236
306 304 305 306 306 307 307 307 306 306 306 307 306 304 303 302 300 301 304 306 306 305 304 302 301 300 298 293 289 284 279 274 268 264 264 258 254 258
Wind_Speed_850mb
35 40 41 40 41 41 42 41 45 59 66 57 55 59 68 67 65 68 69 68 65 67 67 62 65 73 75 79 82 84 85 86 87 88 90 92 93 96
31 32 34 35 37 39 41 44 45 49 64 66 71 70 69 70 70 69 72 76 76 71 72 71 75 77 81 81 83 83 86 90 90 90 91 92 98 96
26 28 30 34 36 40 42 44 49 52 67 84 78 79 76 77 74 73 75 76 77 77 78 77 75 75 77 80 84 87 90 92 90 88 90 92 92 98
26 30 34 37 40 44 47 50 54 56 65 84 85 86 84 80 82 82 81 76 77 77 78 77 78 80 73 73 78 84 90 94 95 92 92 97 97 96
31 35 39 43 45 49 52 55 57 61 64 75 90 87 88 85 88 87 87 88 80 82 83 82 85 79 74 72 66 71 76 82 85 86 89 93 96 96
35 39 42 46 50 53 57 59 62 66 70 76 84 89 86 83 79 88 98 89 92 86 87 73 67 61 72 77 79 73 72 78 81 85 89 93 93 95
39 44 48 52 55 57 61 61 61 64 67 71 77 82 84 85 77 80 83 91 94 78 71 72 78 91 85 84 78 76 73 73 75 80 84 86 91 92
46 48 51 54 55 56 56 56 57 58 61 63 70 74 79 73 73 72 75 84 89 82 78 108 83 87 84 76 73 65 64 71 75 79 81 87 92 90
50 52 51 50 51 53 54 53 53 53 54 55 65 63 69 64 66 76 78 72 87 96 78 94 81 89 78 68 66 63 66 69 74 76 79 86 89 81
49 50 50 50 50 53 56 57 56 56 54 54 57 63 60 63 65 71 80 78 78 79 66 84 87 84 83 71 60 55 58 60 71 69 65 73 59 56
48 48 51 52 54 56 55 61 64 64 59 55 53 53 59 59 48 50 58 63 82 84 71 62 76 87 79 65 48 61 69 62 66 55 39 41 29 36
47 51 53 56 57 56 55 58 65 65 60 61 60 58 52 48 39 37 50 64 70 77 51 71 73 68 66 45 68 67 62 52 48 30 23 28 40 78
50 52 53 54 55 55 48 48 55 54 58 60 58 54 50 46 45 52 46 49 57 59 57 51 64 59 58 73 72 60 63 51 33 9 37 37 53 68
49 50 53 51 53 50 46 44 50 50 55 56 56 55 54 53 54 49 47 47 49 51 45 39 52 49 52 59 60 52 40 12 27 45 52 55 63 61
48 53 55 56 54 53 43 41 50 51 49 52 54 55 55 55 52 51 46 45 43 37 33 35 38 38 35 36 40 43 28 30 43 44 47 46 41 33
52 56 58 55 51 47 45 43 47 49 50 49 52 53 52 52 50 47 43 42 36 23 25 29 30 28 26 25 28 29 5 3 37 36 36 31 28 23
55 57 59 58 58 54 49 45 49 55 59 57 54 52 49 47 46 39 39 33 28 27 23 22 22 19 24 24 21 21 17 19 31 28 23 22 21 16
54 57 57 57 56 56 55 55 56 58 56 53 53 48 46 45 43 39 34 28 23 22 22 21 19 17 19 19 15 14 12 6 14 13 9 6 8 5
55 55 56 56 56 55 54 54 55 51 49 46 49 48 46 44 42 39 34 29 22 21 21 20 18 19 18 19 18 12 8 2 10 19 17 13 10 11
52 53 53 53 53 53 52 51 50 47 45 45 45 43 41 42 41 37 33 32 28 24 22 21 19 17 15 16 16 15 9 4 3 8 14 16 18 17
50 47 49 51 51 50 49 47 45 44 43 42 41 41 39 38 36 34 32 29 29 27 26 23 20 18 17 15 13 12 10 7 5 5 6 8 9 9
49 48 47 47 47 47 45 45 43 42 40 38 37 37 35 34 32 31 30 29 26 25 25 23 21 19 18 17 17 16 14 9 8 9 10 10 7 4
44 44 44 43 43 42 43 42 41 40 40 39 37 36 35 34 31 28 28 27 27 26 24 23 21 20 19 18 18 16 15 14 13 12 13 14 17 19
Wind_Direction_850mb
272 273 279 285 285 286 286 286 290 298 302 300 305 305 305 308 306 306 304 303 296 293 293 291 287 286 287 284 282 281 279 278 278 276 273 270 267 263
282 288 292 296 300 301 300 298 294 287 289 294 300 304 305 308 309 308 306 307 305 297 296 289 284 283 282 283 284 283 281 278 276 274 272 272 268 268
288 293 297 300 303 303 303 302 303 302 296 302 306 310 309 309 309 307 306 305 302 300 300 296 295 290 283 280 281 282 283 283 280 275 272 271 269 265
299 300 302 304 306 306 307 306 305 304 301 303 307 310 311 312 312 310 310 307 304 304 303 302 300 298 291 282 280 279 279 280 281 280 278 272 270 268
306 308 309 310 310 307 307 307 306 305 304 304 307 310 312 313 312 310 310 308 309 308 306 305 309 306 302 301 293 289 285 280 277 278 277 276 273 267
309 309 309 309 310 309 308 309 310 310 310 309 308 309 311 315 314 314 313 312 313 315 314 315 313 306 302 303 304 304 294 286 284 281 278 274 273 273
311 312 311 311 311 312 312 312 311 310 309 309 308 310 313 317 319 317 315 318 318 323 318 316 309 308 309 309 310 305 300 295 289 285 281 277 274 271
313 313 315 316 315 312 309 309 311 312 311 309 309 309 310 312 317 318 318 319 313 310 310 306 316 316 316 312 312 310 302 298 295 290 284 280 276 270
317 316 316 316 315 314 312 311 311 311 310 311 309 310 310 318 319 317 315 305 302 303 314 312 316 314 321 320 318 314 308 301 295 291 286 283 281 272
318 318 319 321 321 319 318 318 319 319 320 316 310 308 311 311 303 298 298 303 304 311 317 308 318 317 322 320 322 317 312 305 304 297 292 293 292 265
320 319 321 323 324 325 321 321 319 320 320 314 311 307 302 304 308 307 308 309 305 309 315 310 312 317 321 326 332 324 315 311 302 300 293 301 234 220
327 327 327 324 321 320 320 319 316 317 317 317 312 312 314 317 317 305 298 297 302 311 316 312 317 326 324 327 330 333 326 327 312 292 252 268 185 147
327 324 323 319 318 321 319 310 308 311 308 311 315 319 322 322 318 312 312 306 305 302 315 318 320 325 318 312 322 332 340 350 347 277 187 190 168 158
320 319 321 324 321 320 316 307 311 308 311 315 318 322 322 319 317 315 317 309 302 302 312 321 318 322 322 322 328 338 354 32 132 151 153 154 154 145
319 320 321 323 324 322 317 310 313 312 316 316 316 316 316 318 317 316 318 313 308 302 310 322 323 323 326 330 335 345 354 114 139 155 149 135 128 123
320 321 321 321 318 315 315 313 310 308 314 311 310 312 317 321 323 323 322 322 317 307 322 325 329 332 341 347 357 2 38 14 140 140 139 130 128 122
317 320 320 320 317 316 314 305 303 303 309 312 311 314 317 324 332 330 326 326 324 332 340 338 340 351 360 360 8 19 24 156 153 154 157 140 127 117
319 317 316 314 313 312 309 304 299 299 300 302 306 310 312 317 322 330 323 324 331 346 351 349 359 9 13 11 12 23 41 132 172 161 164 167 153 156
315 315 312 310 309 308 308 308 307 306 302 298 299 304 305 308 312 314 318 315 322 333 342 341 348 357 3 15 19 9 5 342 225 236 239 246 253 266
311 311 310 309 308 308 309 309 309 308 305 303 301 302 303 305 308 312 312 312 312 314 320 326 328 328 331 342 347 352 347 327 270 241 251 259 265 269
312 310 307 306 307 307 308 308 308 309 308 306 305 304 303 303 303 307 310 311 310 310 310 311 308 306 304 306 312 324 324 302 280 247 231 241 246 249
312 310 308 306 305 306 306 306 307 306 305 305 304 304 303 304 305 306 308 309 309 307 306 306 303 300 296 291 289 291 295 292 279 265 252 249 248 236
306 304 305 306 306 307 307 307 306 306 306 307 306 304 303 302 300 301 304 306 306 305 304 302 301 300 298 293 289 284 279 274 268 264 264 258 254 258